CAPE
370 343 212 597 445 136 185 221 277 53 36 0 0 0 0 0 0 0 0 0 20 135 788 950 1273 1467 1367 798 901 1182 1484 1374 1241 894 1064 1420 1376 1623 1381 1605 1793 1637 1662 1628 1890 1945 1826 1963 1536
336 428 940 1512 40 81 165 267 339 54 242 57 16 0 0 0 0 0 0 9 48 291 880 1354 1532 1610 1297 1168 1335 1302 1476 1330 1576 1580 1409 1494 1521 1662 1489 1328 1232 1760 1777 1718 1767 1646 1840 1921 1969
799 1118 1860 1157 29 1 184 489 375 168 141 74 37 54 9 0 0 0 17 71 184 381 812 1419 1516 1305 1254 1386 1340 1572 1595 1531 1483 1559 1406 1633 1528 1550 1537 1417 1470 1571 1702 1634 1844 2136 1993 1511 1329
1336 2081 2164 109 88 90 248 556 573 446 448 308 205 42 0 0 0 11 130 145 260 354 899 1616 1561 1510 1390 1627 1435 1564 1445 1218 1498 1320 1121 1653 1439 1704 1363 1527 1618 1491 1678 1595 1829 1949 1915 1823 1481
2485 2498 304 36 75 79 552 676 602 451 458 242 69 4 3 1 0 51 116 201 394 479 693 1467 1554 1758 1729 1649 1633 1572 1504 1203 1069 1047 1083 1509 1533 1518 1468 1503 1411 1547 1639 1684 1324 1427 1467 1365 1272
2214 2146 13 72 268 309 700 711 667 622 489 9 0 28 43 0 0 53 205 449 592 766 629 1295 1497 1512 1757 1698 1517 1425 1417 1195 1146 1001 925 1345 1486 1163 1439 1255 1554 1541 1474 1595 1301 1345 1369 1237 842
1500 1001 73 38 214 493 623 555 203 396 338 132 347 105 37 0 0 130 317 579 897 936 515 903 1353 1591 1502 1614 1546 1488 1430 1303 1227 929 937 862 936 1225 1439 1461 1338 1362 1622 1495 1655 1340 1266 986 676
1713 118 241 249 204 306 477 581 0 453 440 683 500 2 0 0 82 334 567 894 986 955 690 645 1090 1308 1568 1982 1504 1489 1476 1345 1560 1171 919 1013 606 720 931 854 1233 1360 1378 1512 1266 1429 1241 918 792
404 105 199 371 315 115 360 392 76 169 654 498 628 392 164 0 231 473 493 492 722 798 885 568 677 816 1042 1330 1152 1528 1576 1282 1262 1154 1028 922 393 110 182 95 432 1011 1111 877 1335 1380 1483 1187 841
58 66 212 388 325 152 37 309 552 621 597 612 445 403 207 42 470 693 375 227 599 608 641 661 760 891 977 977 1006 947 1046 1321 1235 944 713 128 78 24 40 17 354 571 685 1039 1140 1080 932 1001 588
108 148 256 305 307 259 273 247 566 631 549 224 157 323 380 479 619 720 627 76 472 444 514 571 746 744 665 558 159 300 361 597 483 577 266 90 251 75 36 15 219 254 634 431 817 961 959 628 227
254 217 218 321 391 354 442 426 608 531 470 467 429 620 490 713 757 720 377 454 175 229 355 427 475 555 683 588 111 88 95 497 287 510 477 110 285 160 98 4 26 27 29 44 69 46 207 354 313
156 149 133 9 7 75 174 363 480 707 633 592 719 781 728 782 619 544 351 363 147 16 131 142 278 291 501 415 41 50 141 192 413 417 541 229 111 110 112 35 43 57 40 40 18 17 60 72 13
122 121 194 221 124 102 160 416 528 711 607 554 585 615 692 689 650 648 506 374 378 42 23 200 204 229 270 242 127 199 196 345 366 236 327 164 83 120 56 43 62 58 17 11 32 11 51 65 53
1 71 66 297 125 150 122 362 471 522 555 641 601 622 678 686 650 544 626 443 177 179 115 198 213 255 157 67 128 204 409 300 338 146 228 142 109 93 121 125 89 41 37 51 83 45 48 68 57
53 29 11 26 220 185 23 276 445 526 487 440 508 595 637 655 626 534 435 465 0 97 347 278 399 295 286 131 322 455 568 413 388 299 226 115 113 133 176 210 164 224 177 187 133 81 49 20 0
4 2 5 47 106 178 85 259 458 538 466 419 385 358 320 223 561 240 93 35 0 58 315 480 457 339 172 284 554 351 425 636 796 388 466 156 177 210 281 395 428 276 212 260 217 154 145 133 68
0 1 15 15 39 109 277 270 496 426 488 424 435 365 309 286 180 104 25 0 0 6 133 323 441 388 202 573 749 567 546 681 444 171 126 61 245 340 271 73 207 171 391 317 323 331 237 187 203
0 7 3 30 66 205 212 303 60 489 458 479 500 457 400 297 276 123 57 0 1 7 100 237 494 599 368 422 274 409 513 660 436 1 23 28 161 143 68 45 274 356 333 432 413 463 431 395 348
0 3 2 17 73 159 365 246 7 15 430 582 613 565 500 315 313 371 290 267 106 170 225 415 639 683 511 447 184 497 681 783 1012 870 731 823 650 497 630 552 719 830 735 953 908 663 448 390 380
0 30 15 43 27 130 36 47 179 0 141 197 488 572 550 413 362 406 514 503 378 465 574 793 908 785 704 344 440 688 750 606 747 1014 1123 1001 617 989 992 1206 983 1087 1188 1056 1048 760 575 454 257
0 0 49 83 45 98 110 7 20 61 33 22 245 574 550 408 340 398 487 550 525 16 563 640 1002 1116 1112 720 294 0 238 72 355 234 562 283 924 1483 1158 778 1061 978 1310 1020 967 909 815 665 389
0 0 0 37 27 24 135 53 73 169 153 299 206 230 458 334 385 445 464 540 388 61 317 668 438 1033 1163 716 109 0 208 47 337 138 201 142 636 546 553 596 574 433 171 183 98 343 576 631 525
0 0 0 0 0 0 8 39 48 58 37 168 377 211 385 420 487 544 531 546 546 218 195 125 144 49 1262 1134 474 214 414 260 395 233 84 478 277 86 5 0 0 0 0 0 0 0 274 114 186
0 0 0 0 0 0 1 52 18 28 83 69 10 41 155 427 633 586 573 525 462 338 159 66 76 866 1141 1009 647 511 355 454 312 68 390 329 4 0 0 0 0 0 0 0 0 0 0 0 5
0 0 0 0 0 0 45 9 5 69 124 93 31 3 8 259 584 707 531 409 270 338 483 964 1174 1368 876 768 206 104 649 649 390 173 106 0 0 0 0 0 0 0 0 0 0 0 0 0 0
0 0 0 0 0 0 1 4 7 49 77 144 112 37 74 172 292 559 652 441 319 317 947 1647 1711 1344 1058 891 717 683 477 132 5 0 0 0 0 0 0 0 0 0 0 0 0 0 0 0 0
0 0 0 0 0 0 0 1 0 18 46 106 137 256 36 224 269 307 542 677 1210 1207 1584 1961 1692 1412 1111 829 642 459 152 1 0 0 0 0 0 0 0 0 0 0 0 0 0 0 0 0 0
0 0 0 0 0 0 0 0 0 3 50 60 0 78 230 203 302 421 601 1619 1872 1858 1932 1664 1295 1111 1019 676 438 172 0 0 0 0 0 0 0 0 0 0 0 0 0 0 0 0 0 0 0
0 0 0 0 0 0 0 0 31 58 68 42 17 102 349 419 537 622 1133 1485 1689 1606 1369 1168 972 851 717 484 97 0 0 0 0 0 0 0 0 0 0 0 0 0 0 0 0 0 0 0 0
CIN
-350 -353 -366 -231 -55 -59 -19 -17 -69 -108 -150 -7 0 0 0 0 0 0 0 0 -102 -67 -5 -2 -1 0 0 -14 -6 0 0 -8 -22 -43 -39 -15 -6 -1 -10 0 0 0 0 0 0 0 -1 0 -4
-426 -320 -193 -121 -40 -43 -10 -35 -18 -72 -126 -111 -178 0 0 0 0 0 0 -47 -69 -35 -4 -2 -1 0 0 -3 0 0 0 -6 0 -2 -6 0 0 0 0 -2 -6 0 0 -1 0 0 0 0 0
-349 -256 -94 -46 -115 -53 -11 -25 -93 -133 -175 -159 -184 -110 -122 0 0 0 -145 -117 -63 -30 -8 0 0 -1 -1 -1 -3 0 0 0 0 0 -1 0 0 0 0 -2 0 0 0 0 0 0 0 -1 -3
-264 -149 -83 -22 -52 -47 -21 -43 -89 -89 -45 -64 -145 -162 0 0 0 -89 -146 -107 -80 -67 -15 0 0 0 -2 0 -1 0 -7 -10 0 0 -2 0 0 0 0 -1 0 0 0 0 0 0 0 0 -1
-169 -103 -37 -79 -77 -62 -24 -50 -50 -51 -80 -70 -106 -217 -186 -30 0 -238 -184 -127 -80 -60 -35 -3 -1 0 0 0 0 -1 -6 -12 -11 -15 -15 0 0 0 0 0 0 0 0 0 0 0 -7 -10 -9
-83 -57 -29 -72 -9 -22 -28 -50 -90 -74 -85 -11 0 -266 -280 0 0 -220 -144 -95 -89 -63 -52 -10 -3 -3 -1 0 -6 -9 -8 -21 -22 -27 -30 -7 0 -10 0 -1 0 0 0 0 0 0 -9 -19 -20
-82 -38 -55 -70 -21 -30 -53 -74 -74 -83 -85 -90 -143 -191 -307 -11 0 -171 -130 -105 -59 -43 -85 -46 -7 -1 -3 -6 -10 -8 -12 -15 -19 -39 -30 -28 -18 -1 0 0 0 0 0 0 0 0 -7 -28 -33
-80 -67 -71 -39 -10 -15 -58 -70 0 -54 -84 -86 -107 -7 0 0 -165 -120 -97 -47 -38 -37 -58 -71 -47 -20 -4 0 -10 -6 -5 -10 -4 -15 -26 -18 -25 -16 -9 -9 0 0 0 0 0 0 -4 -23 -32
-91 -68 -68 -27 -26 -50 -52 -70 -180 -158 -118 -65 -86 -125 -202 0 -127 -85 -85 -76 -77 -69 -62 -92 -69 -67 -48 -24 -24 0 0 -9 -11 -9 -15 -15 -32 -42 -29 -20 -4 0 -1 -6 0 0 0 -14 -29
-63 -58 -44 -37 -57 -68 -77 -77 -66 -85 -105 -90 -120 -130 -158 -91 -97 -83 -115 -140 -79 -91 -96 -79 -74 -66 -58 -43 -35 -39 -23 -2 -5 -19 -26 -39 -49 -65 -60 -62 -15 -14 -16 -2 -1 0 -5 -14 -44
-53 -47 -51 -53 -71 -83 -86 -59 -83 -92 -94 -93 -121 -132 -124 -87 -71 -84 -89 -167 -110 -114 -107 -96 -85 -81 -94 -86 -124 -89 -83 -41 -38 -33 -34 -47 -50 -54 -51 -79 -36 -30 -9 -15 -8 -8 -3 -28 -74
-46 -29 -30 -40 -49 -56 -67 -56 -106 -98 -139 -135 -132 -108 -115 -88 -87 -97 -99 -100 -151 -138 -121 -110 -96 -68 -85 -83 -134 -109 -122 -66 -56 -36 -35 -64 -58 -55 -57 -120 -77 -87 -59 -53 -52 -81 -39 -51 -55
-66 -84 -74 -48 -85 -93 -82 -81 -95 -132 -154 -151 -144 -130 -103 -82 -79 -83 -77 -90 -145 -189 -131 -133 -100 -95 -89 -82 -130 -144 -111 -109 -73 -40 -32 -36 -54 -37 -45 -91 -85 -68 -65 -74 -95 -112 -69 -65 -84
-84 -77 -95 -110 -98 -93 -87 -131 -119 -148 -177 -156 -143 -138 -122 -80 -78 -61 -58 -69 -91 -141 -208 -123 -99 -93 -101 -85 -86 -76 -93 -94 -58 -47 -31 -33 -38 -36 -55 -76 -72 -94 -123 -140 -97 -111 -73 -70 -66
-17 -68 -122 -114 -99 -177 -178 -109 -127 -135 -169 -155 -138 -154 -110 -84 -67 -67 -74 -64 -90 -101 -139 -154 -100 -103 -120 -136 -104 -94 -87 -73 -57 -71 -36 -30 -50 -49 -43 -47 -70 -97 -99 -101 -86 -104 -91 -77 -73
-75 -111 -75 -151 -121 -243 -235 -122 -179 -170 -137 -138 -147 -156 -94 -60 -60 -59 -73 -63 0 -117 -118 -116 -98 -132 -114 -109 -113 -95 -40 -51 -57 -58 -53 -28 -38 -55 -41 -37 -31 -23 -31 -41 -61 -78 -112 -139 -28
-62 -15 -69 -106 -212 -162 -208 -170 -232 -264 -168 -139 -133 -112 -87 -64 -35 -70 -100 -53 0 -133 -118 -104 -105 -100 -130 -112 -82 -101 -93 -48 -44 -71 -44 -56 -58 -47 -28 -20 -20 -26 -28 -29 -49 -51 -52 -50 -67
0 -29 -107 -72 -150 -177 -155 -129 -161 -208 -194 -143 -139 -110 -92 -29 -61 -144 -192 0 0 -44 -141 -110 -108 -98 -121 -108 -83 -71 -69 -51 -63 -91 -93 -105 -61 -46 -42 -114 -50 -65 -32 -21 -30 -22 -40 -44 -35
0 -52 -61 -130 -117 -116 -108 -109 -151 -152 -181 -173 -143 -139 -81 -47 -87 -154 -195 0 -144 -176 -141 -106 -103 -113 -118 -129 -118 -86 -58 -66 -84 -122 -121 -149 -90 -82 -132 -181 -64 -38 -27 -32 -36 -17 -19 -20 -33
0 -41 -18 -61 -128 -92 -102 -123 -73 -197 -240 -218 -166 -138 -105 -91 -92 -125 -179 -195 -174 -123 -167 -132 -81 -104 -123 -113 -128 -87 -58 -53 -45 -49 -66 -49 -63 -62 -47 -51 -23 -14 -17 -9 -15 -17 -15 -19 -23
0 -44 -62 -40 -101 -76 -149 -146 -169 0 -358 -302 -191 -118 -112 -99 -109 -178 -185 -188 -152 -164 -159 -148 -88 -92 -115 -149 -111 -48 -28 -42 -51 -34 -36 -43 -85 -53 -40 -21 -20 -12 -9 -7 -7 -7 -9 -9 -30
0 0 -39 -33 -49 -63 -168 -39 -195 -272 -214 -293 -168 -74 -107 -115 -135 -210 -216 -191 -169 -138 -191 -188 -122 -85 -92 -121 -100 0 -66 -55 -47 -50 -26 -76 -48 -15 -19 -20 -12 -11 -1 -3 -7 -7 -8 -9 -17
0 0 0 -10 -5 -39 -84 -104 -118 -201 -185 -201 -186 -183 -193 -193 -180 -206 -230 -207 -221 -299 -215 -194 -193 -97 -58 -129 -82 0 -116 -81 -40 -80 -57 -85 -88 -66 -103 -67 -45 -57 -88 -75 -85 -40 -5 -1 -2
0 0 0 0 0 -3 -27 -51 -92 -149 -130 -244 -226 -255 -225 -241 -257 -248 -209 -261 -238 -275 -272 -330 -272 -140 -81 -70 -116 -124 -81 -59 -57 -64 -89 -43 -115 -169 -149 0 0 0 0 0 0 0 -33 -52 -20
0 0 0 0 -2 0 -25 -38 -25 -134 -231 -298 -331 -300 -300 -293 -298 -289 -267 -282 -263 -277 -347 -459 -411 -159 -109 -110 -129 -105 -92 -79 -78 -136 -64 -87 -42 0 0 0 0 0 0 0 0 0 0 0 -10
0 0 0 0 0 0 -87 -25 -44 -219 -283 -324 -344 -308 -393 -344 -312 -311 -343 -300 -260 -292 -314 -241 -200 -139 -160 -138 -261 -257 -76 -58 -90 -134 -163 0 0 0 0 0 0 0 0 0 0 0 0 0 0
0 0 0 0 0 0 -20 -90 -173 -259 -233 -254 -286 -464 -268 -313 -303 -314 -343 -303 -313 -326 -278 -156 -117 -135 -144 -107 -103 -85 -121 -272 -195 0 0 0 0 0 0 0 0 0 0 0 0 0 0 0 0
0 0 0 0 0 0 0 -24 0 -136 -153 -198 -276 -237 -242 -302 -273 -331 -315 -306 -227 -246 -215 -119 -103 -114 -108 -112 -136 -180 -351 -288 0 0 0 0 0 0 0 0 0 0 0 0 0 0 0 0 0
0 0 0 0 0 0 0 0 0 -109 -141 -140 0 -256 -197 -253 -333 -371 -361 -207 -178 -180 -158 -150 -176 -185 -129 -152 -234 -373 -27 0 0 0 0 0 0 0 0 0 0 0 0 0 0 0 0 0 0
0 0 0 0 0 0 0 0 -109 -107 -135 -201 -201 -232 -246 -275 -364 -363 -340 -214 -191 -207 -227 -233 -240 -225 -206 -227 -420 -12 0 0 0 0 0 0 0 0 0 0 0 0 0 0 0 0 0 0 0
Wind_Speed
25 25 23 18 21 21 26 27 29 27 24 20 28 22 27 17 23 22 30 32 36 32 26 25 29 28 30 29 29 29 28 28 28 26 26 26 25 24 23 22 22 21 21 20 20 21 21 21 22
26 25 19 19 27 28 22 25 26 24 23 26 24 25 24 21 14 23 36 36 35 32 24 22 21 28 30 29 28 28 28 27 26 25 25 25 25 24 23 23 21 21 21 21 21 21 21 22 22
24 19 17 17 22 28 27 28 30 29 28 27 25 25 23 20 31 35 14 25 15 10 21 19 26 30 30 28 27 27 27 26 25 24 24 24 24 24 23 23 22 22 21 20 19 19 20 21 21
19 17 16 23 28 23 27 29 29 28 25 24 28 25 21 24 32 34 31 29 26 18 16 10 16 29 28 28 27 26 26 25 24 24 23 23 22 22 22 22 22 22 20 19 19 19 19 19 18
14 18 19 28 25 26 32 30 27 25 25 27 23 24 24 25 29 33 31 30 21 13 12 2 13 21 28 27 26 25 24 23 22 22 22 22 21 20 21 21 20 21 20 19 19 19 20 21 20
14 17 25 33 25 27 31 28 30 29 28 27 28 28 27 30 32 33 30 28 20 19 14 7 1 4 6 24 24 24 22 21 21 21 20 20 20 20 19 19 20 20 20 19 19 19 19 19 19
16 19 30 29 32 33 29 26 28 28 29 26 28 29 29 31 31 32 28 23 17 14 13 11 8 10 22 24 20 22 21 19 19 19 19 18 18 18 18 17 18 19 19 18 18 18 18 18 17
17 18 24 27 29 28 24 21 25 28 24 27 28 26 29 33 31 29 26 20 16 21 18 16 13 10 18 23 20 20 20 18 18 18 18 17 18 18 16 16 17 17 17 17 17 16 16 16 16
16 21 30 25 26 25 24 24 23 24 29 23 20 25 32 32 29 27 26 24 23 20 24 20 17 19 24 24 21 20 18 17 17 17 17 18 18 17 16 15 16 17 16 16 14 14 14 14 14
20 25 25 26 26 26 26 26 26 27 28 26 30 31 32 30 27 26 26 25 26 23 24 24 24 21 21 24 22 21 19 18 17 17 18 19 17 16 16 17 18 16 15 14 11 11 12 10 12
18 27 26 25 24 26 26 23 24 28 24 28 30 32 32 30 27 26 26 25 26 25 24 24 24 24 20 20 19 20 18 19 18 19 19 19 16 15 14 15 15 16 14 11 10 9 9 10 10
27 25 25 23 24 24 26 23 25 23 23 27 28 31 31 29 28 27 26 25 24 24 24 24 23 25 24 22 19 20 20 19 20 19 18 16 15 13 13 13 13 13 12 10 10 9 11 13 11
22 22 22 26 26 27 26 23 23 23 29 28 29 30 28 27 26 27 26 25 24 24 26 26 24 23 23 23 22 22 21 21 20 19 17 15 12 10 11 12 12 11 11 10 9 11 12 12 9
22 19 18 22 23 24 25 26 24 25 28 27 28 27 26 25 24 26 26 25 25 26 26 24 24 24 23 21 20 20 20 21 19 17 16 14 9 8 7 7 9 11 10 10 10 11 9 9 10
23 20 19 18 18 20 21 24 22 24 25 25 24 23 22 22 23 24 25 25 24 25 26 25 25 24 21 20 19 20 20 18 17 14 11 12 10 11 10 8 11 12 11 10 11 11 10 12 11
19 18 12 13 14 16 18 18 21 23 22 20 20 20 19 20 22 23 24 23 22 24 24 24 22 22 21 19 16 17 17 15 15 13 12 12 13 13 13 14 15 12 11 12 11 11 12 11 10
11 13 16 16 11 14 15 17 18 20 19 18 17 17 16 18 22 20 21 23 23 21 23 23 21 20 19 16 16 15 13 17 14 14 13 14 15 14 14 15 16 15 15 13 11 12 11 10 10
12 14 11 13 13 16 12 15 15 18 15 16 16 15 14 16 19 21 19 22 21 18 17 19 17 16 15 15 12 10 8 9 5 13 12 14 13 14 15 15 14 15 14 13 12 10 9 8 9
6 10 13 12 10 10 10 8 11 13 14 13 11 12 14 17 20 19 19 20 20 17 17 14 14 14 12 10 10 8 8 8 9 9 11 11 13 13 13 13 13 14 13 12 11 11 11 11 10
10 5 8 6 9 9 8 7 10 12 10 7 4 13 13 15 19 17 21 20 20 16 20 15 11 11 11 11 9 8 7 7 8 10 10 10 12 13 13 14 14 13 12 11 10 10 12 13 12
2 2 7 4 6 8 16 9 7 6 10 5 5 8 14 14 21 20 23 23 25 21 22 20 20 17 17 13 9 13 11 10 10 8 14 11 10 10 17 15 14 13 11 10 10 12 12 13 14
5 18 3 2 8 2 3 8 4 6 9 5 6 6 20 16 21 22 24 24 25 22 20 20 20 21 21 18 16 13 10 12 14 12 12 10 11 12 16 14 12 11 14 14 15 14 14 13 15
29 30 15 5 7 6 4 9 13 6 4 3 5 13 16 19 23 23 27 24 24 20 18 19 19 19 20 19 16 16 15 17 17 17 15 16 14 13 14 15 15 17 18 18 18 18 19 17 15
35 31 24 16 10 16 10 11 7 3 5 5 9 14 16 17 22 23 28 25 23 21 15 16 17 16 16 16 16 16 15 16 16 15 13 11 12 13 12 16 16 17 17 18 18 19 19 19 19
26 25 25 21 22 23 19 14 15 6 7 9 14 16 19 21 19 23 24 27 25 20 15 14 16 15 13 14 15 15 14 14 14 13 12 11 11 13 13 15 16 17 19 20 20 18 20 20 18
32 23 18 21 19 28 15 15 14 9 6 9 11 15 17 15 12 22 24 24 26 20 16 14 14 13 13 12 12 13 13 13 13 13 13 12 12 13 14 16 17 18 20 20 21 21 20 20 21
36 31 23 20 20 22 17 21 28 15 5 14 11 14 19 17 13 20 25 27 23 19 14 12 14 13 12 12 12 12 12 12 13 14 13 13 13 15 15 17 18 20 21 21 19 20 20 20 20
25 33 25 24 22 30 21 21 15 3 12 18 10 14 17 15 14 16 22 21 19 14 12 11 11 11 11 11 11 11 11 12 12 13 13 14 14 15 16 17 19 20 20 21 20 20 19 19 21
33 29 24 21 19 24 28 20 13 2 12 11 10 16 20 12 12 16 20 19 16 13 12 11 10 9 9 10 10 10 11 12 12 13 14 14 15 16 17 17 19 20 20 21 21 22 21 21 22
34 38 30 23 23 24 27 32 18 7 12 7 7 9 12 16 14 16 16 17 16 13 11 9 8 8 10 10 10 10 10 11 12 14 15 15 16 16 16 17 19 19 19 21 22 21 22 21 21
Wind_Direction
114 115 109 114 106 111 96 93 82 77 90 118 112 103 120 58 148 167 115 163 148 160 174 174 160 157 132 117 128 120 107 112 113 100 102 112 107 96 90 89 86 86 91 83 72 77 75 76 77
113 111 115 109 89 89 103 102 84 86 95 96 107 101 96 136 187 95 147 151 132 160 178 180 182 159 136 132 134 131 121 111 111 101 110 119 118 111 101 95 89 88 89 79 77 76 78 81 82
109 117 109 104 91 86 90 92 84 84 85 98 94 101 126 123 125 144 141 108 98 188 184 191 171 146 137 139 140 137 132 120 117 101 104 114 106 108 101 102 100 97 89 83 74 72 74 78 75
110 109 109 89 83 94 93 97 91 92 90 98 95 79 136 113 140 136 117 114 110 95 90 74 98 152 153 138 140 141 129 117 120 109 105 109 103 97 100 103 99 100 90 82 78 74 71 68 64
113 102 97 80 88 96 83 90 86 79 97 99 104 88 92 142 111 119 121 121 104 89 84 55 82 119 148 138 140 145 138 127 125 104 99 104 98 97 101 103 100 101 94 90 85 84 85 86 79
110 103 79 70 87 99 87 87 72 73 90 97 95 96 120 112 118 127 122 120 105 103 92 73 304 262 254 126 127 133 131 131 127 119 106 105 102 107 104 102 108 108 104 101 95 95 89 86 80
101 103 73 78 80 84 95 97 78 81 88 105 115 112 119 123 125 129 124 114 104 95 96 89 74 80 126 135 113 130 130 121 120 124 119 110 107 106 114 111 114 117 114 107 101 105 96 93 90
115 107 84 80 83 91 108 107 86 85 103 99 112 123 128 132 129 127 121 104 96 119 112 111 101 87 114 142 121 131 136 123 124 129 126 118 117 111 108 124 129 123 118 114 112 107 103 108 103
122 98 68 87 83 94 102 101 109 98 96 108 132 129 128 129 127 129 129 129 128 119 138 124 118 126 148 160 153 149 144 134 135 138 132 138 130 130 123 120 132 128 123 123 116 109 114 115 123
118 77 83 90 97 91 93 99 107 101 102 101 99 107 125 132 131 131 136 133 141 134 143 141 144 140 142 175 165 162 159 154 148 145 144 152 139 128 115 119 131 133 131 125 114 108 120 109 127
120 64 83 95 97 94 99 103 113 95 110 108 106 123 131 136 137 140 145 143 147 145 143 148 152 157 141 146 149 164 154 161 160 163 169 161 140 129 116 113 124 146 136 113 117 113 118 118 129
76 65 75 99 95 95 92 105 102 108 116 114 109 119 126 133 137 140 148 151 153 155 155 155 158 167 170 163 153 163 169 165 177 174 173 154 152 135 127 122 123 138 135 115 122 134 148 164 153
80 68 93 65 65 72 89 96 104 109 110 112 114 118 126 130 137 148 148 151 145 149 160 168 164 160 166 170 188 192 179 183 181 181 176 161 140 123 132 136 128 129 112 119 134 148 149 167 153
108 35 40 48 53 74 72 87 87 102 112 114 119 121 123 131 138 145 155 156 152 159 156 154 160 156 159 163 170 171 173 185 181 174 181 171 119 91 81 107 118 136 120 113 121 129 141 143 162
136 58 43 25 46 58 63 75 88 105 112 118 124 125 127 138 144 150 155 155 155 165 160 149 146 143 142 145 153 149 155 149 146 161 155 159 137 135 122 91 138 145 144 129 137 146 140 164 165
134 116 87 109 108 69 82 89 99 115 112 111 127 136 136 146 149 156 158 160 142 141 144 141 136 138 135 131 114 120 124 111 127 142 147 138 119 124 132 152 168 151 147 153 146 153 167 170 177
72 52 41 41 59 125 87 93 122 119 110 113 123 135 142 147 153 152 153 153 145 138 136 142 137 135 132 110 101 104 96 138 122 132 123 104 111 108 123 161 181 167 173 165 148 157 168 182 183
52 43 60 58 167 161 114 184 141 131 105 112 116 128 148 144 148 145 142 152 149 143 139 139 131 122 116 105 88 61 5 309 103 150 89 73 89 93 103 147 195 175 176 191 185 154 104 137 155
64 64 53 53 97 116 155 122 131 134 134 121 110 121 136 146 141 150 146 150 146 139 147 139 127 120 111 90 66 53 79 61 74 75 122 104 87 102 116 161 170 170 165 158 119 100 79 70 69
352 23 42 50 72 88 66 161 165 166 139 136 115 151 134 125 140 138 146 143 148 134 150 138 132 120 117 115 78 41 51 49 25 345 121 92 94 121 145 166 177 169 158 154 139 111 69 63 62
357 52 16 34 100 134 18 34 164 162 169 133 90 154 160 141 149 143 149 156 161 155 144 141 146 143 137 106 17 323 6 43 354 35 156 119 109 70 196 181 170 171 153 142 104 62 46 41 34
328 199 204 100 41 28 74 36 125 147 162 163 146 311 179 163 161 158 160 159 159 153 133 133 143 151 147 139 124 139 121 143 134 132 133 64 31 59 207 191 163 118 41 39 30 31 29 25 15
231 284 213 187 184 12 119 12 19 56 127 158 140 154 162 169 173 167 172 167 163 144 137 133 135 140 154 146 150 131 147 159 144 165 153 174 111 44 31 16 15 14 12 14 15 11 6 5 9
260 289 304 313 335 317 348 341 7 64 145 89 136 151 163 165 171 171 177 170 167 162 138 135 142 140 135 140 147 143 135 134 126 138 135 124 60 25 20 11 8 8 10 10 6 1 1 359 358
288 299 303 308 301 304 315 337 354 171 95 98 145 147 159 161 159 167 167 172 173 158 138 118 125 121 116 116 121 118 117 121 123 122 106 89 55 35 31 15 10 13 9 6 8 11 7 4 7
272 295 304 307 306 297 310 320 341 359 81 83 153 168 150 141 144 161 168 169 175 156 134 120 118 107 106 102 104 101 94 85 73 80 77 67 49 36 20 13 15 9 8 7 8 8 11 11 6
263 278 295 301 310 301 311 313 285 322 108 174 138 144 149 144 134 151 161 165 164 158 136 116 111 108 99 96 95 87 85 78 73 69 60 52 35 21 19 13 8 10 8 8 12 15 15 15 13
281 266 291 290 293 284 302 309 322 10 164 182 152 159 146 142 139 148 159 157 153 143 125 110 106 103 98 94 87 81 85 77 69 61 56 43 33 24 17 13 10 12 13 11 14 18 20 20 14
269 280 279 291 294 283 285 304 337 140 171 158 147 151 162 154 139 144 147 144 140 129 120 113 104 86 79 79 71 66 66 63 57 49 44 40 31 23 18 23 18 17 18 11 12 12 15 18 15
273 269 284 267 286 289 282 284 315 182 175 153 130 132 144 160 146 142 143 143 140 132 119 107 88 69 73 71 61 54 51 48 44 35 32 37 27 25 28 27 17 22 26 20 19 20 18 19 17